Weather Roundup
Issued by NWS Chicago, IL

Home | Current Version | Previous Version | Text Only | Print | Product List | Glossary On
Versions: 1 2 3 4 5 6 7 8 9 10 11 12 13 14 15 16 17 18 19 20 21 22 23 24 25 26 27 28 29 30 31 32 33 34 35 36 37 38 39 40 41 42 43 44 45 46 47 48 49 50
000
NZUS59 KLOT 091012
HRRLOT

CHICAGO AREA WEATHER ROUNDUP
NATIONAL WEATHER SERVICE CHICAGO/ROMEOVILLE IL
400 AM CST FRI DEC 09 2016

NOTE: "FAIR" INDICATES FEW OR NO CLOUDS BELOW 12,000 FEET WITH NO
SIGNIFICANT WEATHER AND/OR OBSTRUCTIONS TO VISIBILITY.

* THESE STATIONS ARE NOT UNDER NWS QUALITY CONTROL. THEY ALSO MAY NOT
  REPORT WEATHER SUCH AS PRECIPITATION OR FOG.

ILZ005-006-012>014-019>023-091100-
NORTHEAST ILLINOIS

CITY           SKY/WX    TMP DP  RH WIND       PRES   REMARKS
OHARE          CLOUDY    21  16  81 W8        30.45R WCI  11
MIDWAY         MOCLDY    21  14  74 W9        30.46R WCI  11
AURORA         CLOUDY    22  16  78 W15       30.47S WCI   9
LANSING*       CLOUDY    21  18  86 W7        30.47R WCI  13
JOLIET*        CLOUDY    24  18  80 W7        30.49S WCI  15
WAUKEGAN       MOCLDY    22  17  81 NW7       30.42R WCI  13
DUPAGE AIRPORT CLOUDY    21  15  78 W10       30.46R WCI  10
WHEELING       MOCLDY    22  16  78 W8        30.46R WCI  12
KANKAKEE*      FLURRIES  23  18  81 W9        30.49S WCI  13
MORRIS*        CLOUDY    22  17  81 W14       30.48S WCI  10
LEWIS AIRPORT* CLOUDY    22  19  91 W10       30.47S WCI  11
NORTHERLY ISL    N/A     22  18  85 W10         N/A  WCI  11
$$

WIZ051-052-058>065-066-070>072-091100-
SOUTHEAST WISCONSIN

CITY           SKY/WX    TMP DP  RH WIND       PRES   REMARKS
MILWAUKEE      CLEAR     23  15  71 NW10      30.42R WCI  12
KENOSHA*       CLEAR     21  16  81 W9        30.43R WCI  11
RACINE*        CLEAR     21  15  78 NW8       30.44R WCI  11
BURLINGTON     CLOUDY    26  22  87 W9        30.43R WCI  16
WAUKESHA       CLEAR     19  16  86 W10       30.43R WCI   8
WEST BEND      CLEAR     19  16  86 NW8       30.40S WCI   9
$$

INZ001>003-010>013-019-020-091100-
NORTHWEST INDIANA

CITY           SKY/WX    TMP DP  RH WIND       PRES   REMARKS
GARY*          NOT AVBL
MICHIGAN CITY* NOT AVBL
RENSSELAER*    NOT AVBL
VALPARAISO     CLOUDY    23  16  74 MISG      30.45R
$$

LMZ740>746-091100-
SOUTHERN LAKE MICHIGAN

STATION/POSITION TIME  SKY/WX   TEMP WIND        PRES    VSBY
                                AIR  DIR/SP/G
                 (UTC)          (F)  (DEG/KT/KT) (MB)    (MI)
HARRISON CRIB    0940            24  280/ 17/ 19   N/A
BURNHAM HARBOR   1000            22  250/ 11/ 14   N/A
CALUMET HARBOR   0942            21  260/  7/ 11 1030.5R
BURNS HARBOR     1001            26  270/ 17/ 22 1031.2
MICHIGAN CITY    NOT AVBL
$$

ABBREVIATIONS USED IN REMARKS
   TC - TEMPERATURE IN CELSIUS
  WCI - WIND CHILL INDEX
   HX - HEAT INDEX
  VSB - VISIBILITY
$$




USA.gov is the U.S. government's official web portal to all federal, state and local government web resources and services.